Date String (YYYY-MM-DD hh:mm:ss) UTC,Instrument flags,Ambient pressure (hPa),Sample flow (lpm),Bypass flow (lpm),Sample temperature (°C),Ambient temperature (°C),ASC tube jacket temperature (°C),LED temperature (°C),Box temperature (°C),Sample RH (%),Span deviation,Mass concentration (μg/m³),Mass concentration (μg/m³),Mass concentration (μg/m³)
DateTimeUTC,F1_M11,P_M11,Q1_M11,Q2_M11,T1_M11,T2_M11,T3_M11,T4_M11,T5_M11,U1_M11,ZSPAN_M11,X0_M11,X2_M11,X1_M11
2021-11-26 19:00:00,,0826.9,5.00,0.00,30.6,29.9,00.0,39.5,32.3,07.6,0000.0,0004.08,0001.03,0000.58
2021-11-26 19:01:00,,0826.9,5.00,0.00,30.6,29.9,00.0,39.5,32.3,07.6,0000.0,0004.49,0001.05,0000.59
2021-11-26 19:02:00,,0827.1,5.01,0.00,30.6,29.9,00.0,39.5,32.4,07.6,0000.0,0004.82,0001.08,0000.60
2021-11-26 19:03:00,,0826.9,4.99,0.00,30.6,29.9,00.0,39.5,32.4,07.5,0000.0,0004.62,0001.07,0000.60
2021-11-26 19:04:00,,0826.9,5.00,0.00,30.7,29.9,00.0,39.5,32.4,07.7,0000.0,0004.63,0001.07,0000.60
2021-11-26 19:05:00,,0826.8,5.00,0.00,30.7,30.0,00.0,39.6,32.4,07.5,0000.0,0004.75,0001.14,0000.61
2021-11-26 19:06:00,,0826.8,5.01,0.00,30.7,30.0,00.0,39.6,32.5,07.5,0000.0,0004.74,0001.16,0000.62
2021-11-26 19:07:00,,0826.8,5.01,0.00,30.7,30.0,00.0,39.6,32.5,07.4,0000.0,0004.69,0001.18,0000.63
2021-11-26 19:08:00,,0826.7,5.00,0.00,30.7,30.0,00.0,39.6,32.5,07.3,0000.0,0003.63,0001.24,0000.64
2021-11-26 19:09:00,,0826.7,4.99,0.00,30.8,30.0,00.0,39.6,32.5,07.3,0000.0,0004.67,0001.31,0000.65
2021-11-26 19:10:00,,0826.7,5.01,0.00,30.8,30.0,00.0,39.7,32.5,07.1,0000.0,0005.83,0001.34,0000.66
2021-11-26 19:11:00,,0826.7,5.00,0.00,30.8,30.1,00.0,39.7,32.6,07.2,0000.0,0006.28,0001.36,0000.66
2021-11-26 19:12:00,,0826.7,4.99,0.00,30.8,30.1,00.0,39.7,32.6,07.2,0000.0,0005.95,0001.41,0000.66
2021-11-26 19:13:00,,0826.7,4.99,0.00,30.8,30.1,00.0,39.7,32.6,07.2,0000.0,0005.53,0001.42,0000.66
2021-11-26 19:14:00,,0826.6,5.00,0.00,30.9,30.2,00.0,39.7,32.6,07.1,0000.0,0005.64,0001.46,0000.68
2021-11-26 19:15:00,,0826.7,5.02,0.00,30.9,30.2,00.0,39.8,32.6,07.1,0000.0,0005.71,0001.49,0000.69
2021-11-26 19:16:00,,0826.7,4.99,0.00,30.9,30.3,00.0,39.8,32.7,07.1,0000.0,0005.66,0001.46,0000.69
2021-11-26 19:17:00,,0826.7,5.00,0.00,31.0,30.3,00.0,39.8,32.7,07.0,0000.0,0005.58,0001.44,0000.69
2021-11-26 19:18:00,,0826.7,5.00,0.00,31.0,30.3,00.0,39.8,32.8,07.0,0000.0,0005.43,0001.42,0000.69
2021-11-26 19:19:00,,0826.7,5.00,0.00,31.0,30.4,00.0,39.9,32.8,07.0,0000.0,0005.32,0001.37,0000.68
2021-11-26 19:20:00,,0826.7,4.99,0.00,31.0,30.4,00.0,39.9,32.8,07.0,0000.0,0004.55,0001.33,0000.67
2021-11-26 19:21:00,,0826.6,5.01,0.00,31.1,30.4,00.0,39.9,32.8,06.9,0000.0,0003.33,0001.32,0000.67
2021-11-26 19:22:00,,0826.6,5.01,0.00,31.1,30.4,00.0,39.9,32.9,06.8,0000.0,0002.90,0001.36,0000.67
2021-11-26 19:23:00,,0826.5,5.00,0.00,31.1,30.4,00.0,40.0,32.8,06.6,0000.0,0002.87,0001.35,0000.68
2021-11-26 19:24:00,,0826.5,4.99,0.00,31.1,28.9,00.0,40.0,32.6,06.6,0000.0,0002.73,0001.28,0000.67
2021-11-26 19:25:00,,0826.5,5.00,0.00,30.9,27.3,00.0,39.9,32.1,06.6,0000.0,0002.60,0001.23,0000.66
2021-11-26 19:26:00,,0826.5,5.00,0.00,30.8,27.2,00.0,39.9,32.1,06.6,0000.0,0002.65,0001.21,0000.65
2021-11-26 19:27:00,,0826.5,5.00,0.00,30.7,27.6,00.0,39.8,32.1,06.6,0000.0,0002.52,0001.17,0000.65
2021-11-26 19:28:00,,0826.5,5.01,0.00,30.7,28.0,00.0,39.8,32.1,06.6,0000.0,0002.50,0001.14,0000.64
2021-11-26 19:29:00,,0826.5,5.00,0.00,30.6,28.4,00.0,39.8,32.1,06.7,0000.0,0002.55,0001.15,0000.65
2021-11-26 19:30:00,,0826.5,5.00,0.00,30.6,28.6,00.0,39.7,32.1,06.7,0000.0,0002.53,0001.15,0000.65
2021-11-26 19:31:00,,0826.5,4.99,0.00,30.6,28.9,00.0,39.7,32.2,06.7,0000.0,0002.63,0001.13,0000.66
2021-11-26 19:32:00,,0826.5,5.00,0.00,30.6,29.1,00.0,39.7,32.2,06.7,0000.0,0002.61,0001.10,0000.65
2021-11-26 19:33:00,,0826.4,5.01,0.00,30.6,29.2,00.0,39.7,32.2,06.7,0000.0,0002.38,0001.03,0000.65
2021-11-26 19:34:00,,0826.3,5.00,0.00,30.6,29.3,00.0,39.7,32.2,06.8,0000.0,0002.24,0000.99,0000.63
2021-11-26 19:35:00,,0826.3,4.99,0.00,30.7,29.4,00.0,39.7,32.3,06.8,0000.0,0002.17,0001.00,0000.64
2021-11-26 19:36:00,,0826.3,5.00,0.00,30.7,29.5,00.0,39.7,32.3,06.8,0000.0,0002.08,0000.98,0000.63
2021-11-26 19:37:00,,0826.3,5.01,0.00,30.7,29.5,00.0,39.7,32.3,06.8,0000.0,0001.93,0000.95,0000.63
2021-11-26 19:38:00,,0826.3,5.00,0.00,30.7,29.6,00.0,39.7,32.3,06.8,0000.0,0001.97,0000.97,0000.63
2021-11-26 19:39:00,,0826.3,4.98,0.00,30.7,29.7,00.0,39.7,32.4,06.8,0000.0,0001.91,0000.96,0000.62
2021-11-26 19:40:00,,0826.2,4.99,0.00,30.7,29.7,00.0,39.7,32.4,06.8,0000.0,0001.82,0000.95,0000.62
2021-11-26 19:41:00,,0826.3,5.01,0.00,30.7,29.7,00.0,39.7,32.4,06.8,0000.0,0001.85,0000.95,0000.62
2021-11-26 19:42:00,,0826.2,5.01,0.00,30.7,29.8,00.0,39.7,32.4,06.8,0000.0,0002.41,0000.94,0000.61
2021-11-26 19:43:00,,0826.2,4.99,0.00,30.8,29.8,00.0,39.7,32.4,06.9,0000.0,0002.96,0000.93,0000.60
2021-11-26 19:44:00,,0826.2,5.01,0.00,30.8,29.8,00.0,39.7,32.5,06.9,0000.0,0003.04,0000.94,0000.61
2021-11-26 19:45:00,,0826.2,5.00,0.00,30.8,29.9,00.0,39.7,32.5,06.9,0000.0,0003.20,0000.96,0000.61
2021-11-26 19:46:00,,0826.2,4.99,0.00,30.8,29.9,00.0,39.8,32.5,06.9,0000.0,0003.18,0000.96,0000.61
2021-11-26 19:47:00,,0826.2,5.01,0.00,30.8,29.9,00.0,39.8,32.5,06.9,0000.0,0003.28,0001.02,0000.62
2021-11-26 19:48:00,,0826.2,4.99,0.00,30.9,29.9,00.0,39.8,32.5,06.9,0000.0,0003.38,0001.05,0000.64
2021-11-26 19:49:00,,0826.2,5.00,0.00,30.9,30.0,00.0,39.8,32.6,06.9,0000.0,0003.45,0001.07,0000.64
2021-11-26 19:50:00,,0826.2,5.01,0.00,30.9,29.5,00.0,39.8,32.5,06.9,0000.0,0003.60,0001.13,0000.64
2021-11-26 19:51:00,,0826.2,4.99,0.00,30.8,27.5,00.0,39.8,32.0,06.9,0000.0,0003.54,0001.11,0000.64
2021-11-26 19:52:00,,0826.1,5.00,0.00,30.6,26.5,00.0,39.7,31.8,07.0,0000.0,0003.65,0001.14,0000.66
2021-11-26 19:53:00,,0826.2,5.01,0.00,30.5,26.8,00.0,39.7,31.8,07.0,0000.0,0003.35,0001.14,0000.66
2021-11-26 19:54:00,,0826.2,5.00,0.00,30.4,27.2,00.0,39.6,31.7,07.1,0000.0,0002.40,0001.15,0000.67
2021-11-26 19:55:00,,0826.1,5.00,0.00,30.3,27.6,00.0,39.6,31.7,07.2,0000.0,0002.54,0001.16,0000.67
2021-11-26 19:56:00,,0826.0,5.00,0.00,30.3,28.0,00.0,39.5,31.8,07.2,0000.0,0002.49,0001.16,0000.68
2021-11-26 19:57:00,,0826.0,4.99,0.00,30.3,28.3,00.0,39.5,31.8,07.2,0000.0,0002.46,0001.15,0000.69
2021-11-26 19:58:00,,0825.9,5.00,0.00,30.3,28.5,00.0,39.5,31.9,07.2,0000.0,0002.41,0001.14,0000.70
2021-11-26 19:59:00,,0825.8,5.01,0.00,30.3,28.7,00.0,39.5,31.9,07.2,0000.0,0002.52,0001.17,0000.71
